Temperature
16 16 16 16 16 16 16 16 16 16 16 16 16 16 16 16 16 16 16 17 17 17 17 17 17 17 17 16 16 16 16 16 16 16 16 16 15 15 15 15 14 15 15
16 16 16 16 16 16 16 16 16 16 16 16 16 16 16 16 16 16 17 17 17 17 17 17 17 17 17 17 16 16 16 16 16 16 16 16 16 16 15 15 15 15 15
16 16 16 16 16 16 16 16 16 16 16 16 16 16 16 16 16 16 17 17 17 17 17 17 17 17 17 17 16 16 16 16 16 16 15 15 15 16 15 15 15 15 15
16 15 16 16 16 16 16 16 16 16 16 15 16 16 16 16 16 17 17 17 18 17 17 17 17 17 17 17 16 16 16 16 16 15 14 14 15 15 15 15 15 15 15
15 15 15 16 16 16 16 16 16 16 15 15 15 16 16 16 17 17 17 18 18 17 17 17 17 17 17 17 16 16 16 16 16 15 14 14 15 15 15 15 15 15 15
15 15 16 16 16 16 16 16 16 16 15 15 15 16 16 16 17 17 17 18 18 17 17 17 17 17 17 16 16 16 16 16 15 14 14 14 14 15 15 15 15 15 15
15 15 15 15 16 16 16 16 16 16 15 15 15 16 16 17 17 17 17 17 17 17 17 17 17 17 16 16 16 16 16 16 14 14 14 14 14 15 15 14 14 14 14
15 15 15 15 15 15 15 15 15 15 15 15 15 16 16 17 17 17 17 17 17 17 17 17 17 17 16 16 16 16 16 15 14 14 14 14 14 14 14 14 14 14 14
15 15 15 15 15 15 15 15 15 15 15 15 15 16 16 17 17 17 17 17 17 17 17 17 17 16 16 16 16 15 15 15 14 14 14 14 14 14 14 14 14 13 13
15 15 15 15 15 15 15 15 15 15 15 15 15 16 16 16 17 17 17 17 17 17 17 17 17 16 16 16 16 15 15 15 14 14 13 13 14 14 13 13 13 13 13
15 15 15 15 14 14 14 14 14 15 15 15 15 16 16 16 16 16 17 17 17 17 17 16 16 16 16 16 15 15 15 14 14 14 13 14 14 13 13 13 13 13 13
14 14 14 14 14 14 14 14 14 14 14 14 15 15 15 15 15 16 16 16 16 16 16 16 16 16 15 15 15 15 14 14 13 13 13 14 14 13 13 13 13 13 12
14 14 14 14 14 14 14 14 14 14 14 14 15 15 15 16 16 16 16 16 16 16 16 16 16 15 15 15 14 14 14 14 13 13 13 14 13 13 13 13 12 12 12
14 14 14 14 14 14 14 14 14 14 14 14 15 15 15 16 16 16 16 16 16 16 16 15 15 15 14 14 14 13 14 13 13 13 13 13 13 13 13 13 12 12 12
14 14 14 14 14 14 14 14 14 14 14 14 15 15 15 16 16 15 15 16 15 15 15 15 14 14 14 13 13 13 13 13 13 13 13 13 13 13 13 12 12 12 12
13 14 14 14 14 14 14 14 14 14 14 14 15 15 15 15 15 15 15 15 15 15 14 14 14 14 13 13 13 13 13 13 13 13 13 13 13 13 13 12 12 12 12
13 13 13 14 14 14 14 14 14 15 15 15 15 15 15 15 15 15 14 14 14 14 14 14 13 13 13 13 13 13 13 13 13 13 13 13 13 13 13 12 12 12 12
13 13 13 13 13 14 14 14 14 15 15 15 15 15 15 15 15 14 14 14 14 14 14 13 13 13 13 13 13 13 13 13 13 13 13 13 13 13 12 12 12 12 11
13 13 13 13 13 14 14 14 14 14 14 15 15 15 15 15 14 14 14 14 14 13 13 13 13 13 13 13 13 13 13 13 13 13 13 13 13 13 12 12 12 11 11
12 12 13 13 13 13 14 14 14 14 14 14 14 15 14 14 14 14 14 13 13 13 13 13 13 13 13 13 13 13 13 13 13 13 13 13 13 13 12 12 11 11 11
12 12 12 12 13 13 13 13 14 14 14 14 14 14 14 14 14 14 13 13 13 13 13 13 12 12 13 13 13 12 13 13 13 13 13 13 12 12 12 11 11 11 10
12 12 12 12 12 13 13 13 14 14 13 14 14 14 13 13 13 13 13 13 13 13 12 12 12 12 12 12 12 12 12 12 12 12 12 12 12 11 11 11 10 10 10
12 12 12 12 12 13 13 13 13 13 13 13 13 13 13 13 13 13 13 13 13 13 13 13 13 12 12 12 13 12 12 13 11 11 11 11 11 11 10 10 10 10 10
12 12 12 12 12 12 12 12 12 12 12 13 13 13 13 13 13 13 13 12 12 12 12 12 12 12 12 12 13 12 12 11 11 11 10 10 10 10 10 10 9 9 9
12 12 12 12 12 12 12 12 12 12 12 12 12 12 12 12 12 12 12 12 12 12 12 12 12 12 12 12 12 12 12 11 11 10 10 9 9 9 9 9 9 8 8
12 12 12 12 12 12 12 12 12 12 12 12 12 12 12 12 12 12 12 12 12 12 12 12 12 12 12 12 12 12 12 11 10 10 9 9 8 8 8 8 8 8 7
Wind_Speed
16 20 25 22 20 18 17 15 13 13 14 16 18 19 19 18 18 18 18 18 18 18 18 17 17 16 16 16 16 16 16 16 16 16 16 16 15 15 14 12 10 14 14
19 22 25 23 21 19 17 15 13 12 13 16 19 20 20 19 19 19 19 19 19 18 17 17 16 16 15 15 15 15 15 15 15 13 12 15 15 14 14 14 14 13 14
20 23 25 22 21 19 17 15 14 13 14 16 19 20 20 19 19 19 19 19 18 18 17 16 16 15 15 14 14 14 14 13 12 8 6 12 14 14 13 13 13 13 13
20 22 23 23 21 19 18 16 14 14 14 16 19 20 20 20 19 19 19 18 18 17 16 15 14 14 13 13 13 13 12 11 8 3 9 11 12 13 13 13 13 13 13
19 21 22 23 21 20 19 17 15 14 14 16 18 19 20 20 19 19 18 18 17 16 15 14 13 13 12 12 12 12 11 10 6 6 10 10 11 12 12 12 12 12 12
19 20 22 22 21 20 19 17 16 14 14 16 18 19 19 19 19 18 18 17 16 15 14 13 12 12 12 12 11 11 10 7 5 9 9 9 10 10 11 11 11 11 11
18 19 23 22 21 20 19 18 16 15 15 16 18 19 18 18 18 17 17 16 15 15 14 13 12 11 11 11 10 10 8 4 6 7 7 8 9 9 9 9 9 9 10
17 18 21 21 21 20 19 18 17 16 15 16 17 18 17 17 17 16 16 15 14 14 13 12 11 11 10 10 9 8 6 3 5 6 6 7 7 6 7 7 7 7 8
15 16 18 20 20 19 18 18 18 16 16 16 16 17 17 16 15 15 14 14 13 13 12 11 10 10 9 8 7 6 5 2 2 4 4 4 4 3 4 4 5 5 5
13 14 15 18 19 19 18 19 19 17 16 16 16 17 16 15 14 13 13 13 12 12 11 10 9 9 9 8 7 6 5 4 2 3 2 3 1 0 1 2 2 2 3
11 11 13 15 16 17 17 18 18 17 17 17 16 17 16 13 13 12 11 11 11 10 10 9 8 8 8 7 6 5 5 3 2 1 1 2 2 2 2 2 2 1 1
11 11 11 13 14 15 15 17 16 15 16 14 14 15 12 11 9 10 12 10 9 9 9 8 7 7 6 6 6 5 3 2 2 1 1 0 3 4 4 4 4 4 4
10 11 11 12 13 13 12 13 12 12 13 13 14 13 11 10 9 9 9 9 8 8 8 7 7 6 5 4 4 4 2 2 2 1 1 1 4 5 6 6 6 6 6
11 12 11 12 11 12 12 11 11 10 10 10 12 13 10 8 7 8 7 7 7 7 6 6 5 6 5 5 4 3 3 3 3 3 1 2 5 6 7 7 7 7 7
13 13 13 12 12 11 11 10 10 10 10 11 11 11 10 8 7 7 6 6 7 6 7 6 6 6 5 4 4 4 4 4 4 4 3 3 5 7 8 8 8 8 7
15 14 12 13 13 12 11 10 9 10 10 10 10 11 11 9 8 7 6 6 6 7 6 6 6 5 5 4 4 4 4 5 5 6 6 5 6 7 8 9 8 7 5
14 14 12 12 13 13 12 11 9 10 10 9 10 11 12 10 9 7 6 6 6 7 7 6 6 5 4 4 5 5 5 6 6 7 7 7 6 6 7 8 7 5 3
13 13 13 12 12 13 11 11 9 10 10 9 10 11 12 12 10 8 6 6 7 7 6 5 5 5 5 5 5 4 5 5 7 8 8 7 7 6 4 3 3 3 2
13 12 13 13 13 12 11 9 8 8 8 9 9 10 11 12 11 9 7 7 8 6 6 5 5 5 5 5 5 4 5 5 6 6 7 6 5 4 2 2 2 2 3
9 10 10 11 11 10 8 7 6 7 7 7 8 9 11 11 12 10 7 8 8 6 6 6 6 5 5 4 4 5 5 5 4 4 4 3 2 1 1 1 2 4 4
8 9 10 9 8 7 6 6 6 7 6 6 6 8 10 10 11 10 7 8 8 7 7 8 6 6 5 4 4 4 4 3 2 1 1 1 1 1 1 1 1 2 4
10 11 11 10 9 8 7 6 4 4 4 5 5 6 9 9 10 9 8 7 8 7 8 8 7 5 4 4 4 4 3 4 2 1 0 1 1 1 2 2 2 2 2
9 9 9 9 9 8 7 4 3 2 2 3 5 6 7 9 9 9 8 7 8 8 7 8 8 8 6 5 5 4 4 3 2 3 1 1 1 1 1 2 2 2 2
6 6 6 7 8 8 7 6 6 6 6 6 5 5 6 8 9 9 9 8 8 7 7 7 6 6 6 5 4 5 5 3 4 3 3 3 1 1 1 1 1 2 2
3 4 6 6 6 6 6 7 8 8 6 4 4 5 5 5 6 7 8 7 7 6 6 6 6 6 5 5 4 3 4 4 6 6 5 4 3 3 2 1 1 2 2
2 2 4 5 5 5 7 8 9 9 8 7 7 7 6 4 4 6 6 7 7 6 6 6 6 6 5 5 5 4 4 4 5 6 7 6 5 3 3 2 2 2 2
Wind_Direction
166 163 157 157 154 151 149 147 147 150 156 158 155 150 147 141 136 131 127 125 123 122 119 116 111 108 104 101 97 93 91 89 85 81 79 75 73 70 63 53 59 66 58
162 161 156 157 155 152 150 147 146 149 154 157 153 149 144 140 135 130 127 125 125 124 121 117 114 111 107 103 100 97 94 92 89 86 90 85 74 70 65 58 54 60 58
161 158 158 157 155 153 150 148 145 148 153 154 151 148 143 139 134 130 129 129 128 126 123 118 115 112 110 107 104 102 99 95 92 94 103 89 81 73 70 66 63 61 59
160 159 161 155 155 153 151 149 147 148 151 150 147 144 141 137 134 132 132 131 130 127 122 119 116 115 113 112 110 107 103 99 98 108 86 82 81 74 71 69 66 63 60
161 162 155 154 155 154 153 150 149 149 148 148 143 140 138 137 135 134 132 131 130 126 123 120 118 117 117 116 115 112 109 106 113 93 84 81 80 75 72 69 67 64 64
163 161 154 156 156 156 154 152 150 150 148 145 142 139 138 137 135 133 132 132 130 128 125 121 119 119 120 119 118 117 116 127 136 89 86 81 80 77 74 71 69 66 64
165 162 157 157 158 158 156 154 152 151 148 145 143 140 138 137 135 134 134 134 134 130 126 123 120 120 122 123 122 121 122 128 97 94 88 83 79 76 75 72 69 67 64
167 163 158 158 159 159 157 154 151 150 149 145 143 141 139 137 136 135 136 137 136 132 128 125 122 122 124 123 124 127 135 159 111 99 94 89 80 77 77 74 70 67 65
169 165 161 163 162 159 156 153 151 150 150 147 143 140 137 137 139 139 138 138 137 133 129 127 125 124 123 124 126 130 139 185 123 103 99 93 85 77 84 83 78 71 67
173 169 165 167 166 164 162 155 151 150 149 146 139 135 133 135 140 139 142 138 137 134 131 129 127 124 123 125 130 138 154 197 130 127 116 98 79 39 108 112 100 86 77
178 176 169 169 168 166 164 157 154 151 148 144 140 137 144 152 150 151 139 133 135 134 134 132 129 127 129 129 132 149 181 186 145 144 121 87 271 266 258 237 219 204 183
184 181 177 172 170 167 162 162 162 160 159 161 156 157 163 158 156 148 132 132 132 134 135 133 134 147 171 159 153 183 194 191 193 177 137 147 277 268 265 259 247 235 232
188 188 185 177 172 169 166 167 164 163 164 165 161 164 163 159 156 158 157 155 158 162 162 153 173 180 186 177 189 198 203 232 240 232 192 228 277 277 274 268 259 247 242
193 192 187 179 175 173 169 169 167 165 166 166 168 169 167 167 170 170 173 172 175 179 179 187 194 185 191 193 204 210 213 238 256 268 265 256 278 280 279 278 269 258 247
192 195 186 182 180 175 170 168 171 170 170 169 169 175 176 174 176 177 179 181 188 186 188 193 198 194 204 210 221 237 246 254 264 268 259 237 271 279 280 279 277 266 252
190 191 187 186 187 181 175 172 173 173 173 173 176 181 182 183 182 183 186 190 191 193 195 199 202 205 214 223 234 241 253 261 268 274 280 262 248 265 276 277 274 266 254
195 191 189 189 188 185 182 177 174 175 176 180 182 186 189 190 190 191 194 194 195 195 196 204 205 218 226 232 240 248 259 269 274 276 277 281 274 256 263 269 262 251 237
198 193 188 187 190 189 185 180 175 178 179 184 186 189 194 196 196 195 198 201 196 194 199 205 212 218 225 236 247 252 261 269 275 281 279 276 279 280 264 236 229 214 184
197 193 189 189 190 190 184 180 178 179 185 186 189 193 196 198 198 199 204 203 197 199 204 206 217 223 232 240 254 266 271 274 281 281 281 283 281 275 272 119 121 131 141
199 198 195 193 193 188 181 176 173 184 192 192 192 196 198 199 199 200 204 205 199 202 206 209 214 221 239 248 256 264 268 276 280 289 295 294 294 279 232 176 135 111 111
203 202 201 194 194 188 182 179 183 193 196 198 197 199 202 203 199 200 201 201 199 206 211 211 214 218 223 232 249 256 253 252 266 294 306 314 59 70 94 106 111 127 117
208 206 204 200 198 195 195 187 186 190 198 201 195 200 203 205 200 200 204 204 200 205 208 207 206 216 218 216 239 258 256 222 184 171 36 32 77 104 96 80 92 101 119
206 208 206 202 205 206 200 187 172 175 187 194 205 207 206 205 201 196 203 207 203 204 205 207 207 213 220 215 228 242 255 257 243 202 190 195 171 161 122 87 82 92 102
196 193 197 198 201 203 199 200 202 219 224 219 219 211 203 205 206 200 201 206 204 204 208 208 209 216 220 220 218 233 251 268 258 254 204 192 188 219 197 137 127 109 111
179 187 190 187 193 194 196 207 214 225 234 226 212 203 200 201 200 196 193 194 197 196 196 194 199 205 211 218 212 212 225 237 243 251 257 235 226 217 215 205 183 148 126
116 149 166 172 183 191 201 210 215 218 224 219 211 208 207 198 193 190 179 187 190 189 189 188 192 194 197 206 212 214 217 222 223 231 250 256 252 228 208 213 202 174 150
Height
1507 1510 1513 1517 1520 1522 1524 1525 1526 1527 1529 1530 1533 1535 1537 1539 1541 1542 1543 1544 1545 1546 1546 1547 1547 1548 1548 1549 1549 1549 1549 1549 1549 1549 1549 1549 1548 1548 1547 1547 1547 1546 1545
1505 1510 1512 1516 1519 1522 1523 1525 1526 1528 1529 1530 1533 1535 1538 1540 1541 1543 1544 1545 1546 1547 1548 1548 1549 1550 1550 1551 1551 1551 1551 1551 1551 1551 1551 1551 1550 1550 1549 1549 1548 1547 1546
1505 1509 1512 1516 1519 1521 1523 1525 1527 1528 1529 1531 1533 1535 1538 1540 1542 1544 1545 1546 1548 1548 1549 1550 1551 1552 1552 1553 1553 1553 1553 1553 1553 1553 1553 1553 1552 1551 1551 1550 1549 1548 1548
1506 1509 1512 1515 1519 1521 1523 1525 1527 1528 1530 1532 1534 1536 1538 1541 1543 1544 1546 1548 1549 1550 1551 1552 1553 1553 1554 1554 1555 1555 1555 1555 1555 1554 1556 1555 1554 1553 1552 1551 1550 1550 1549
1507 1510 1512 1515 1518 1521 1523 1525 1527 1529 1531 1532 1535 1537 1539 1541 1543 1545 1547 1549 1550 1551 1552 1553 1554 1555 1555 1556 1556 1556 1556 1556 1556 1556 1556 1556 1555 1554 1553 1553 1552 1551 1550
1507 1510 1512 1515 1518 1521 1523 1525 1527 1529 1531 1533 1535 1537 1540 1542 1544 1546 1548 1550 1551 1553 1554 1555 1556 1556 1557 1557 1557 1558 1558 1557 1558 1558 1558 1557 1556 1555 1554 1554 1553 1552 1551
1507 1510 1512 1515 1518 1520 1523 1525 1527 1529 1532 1534 1536 1538 1541 1543 1545 1547 1549 1551 1552 1553 1555 1556 1557 1557 1558 1558 1559 1559 1559 1559 1559 1559 1559 1558 1557 1556 1555 1555 1554 1553 1552
1507 1509 1511 1515 1518 1520 1523 1525 1527 1530 1532 1534 1536 1539 1541 1543 1545 1547 1549 1551 1553 1554 1555 1557 1558 1558 1559 1559 1560 1560 1560 1559 1560 1560 1559 1559 1558 1557 1556 1555 1554 1554 1553
1506 1509 1511 1514 1517 1520 1522 1525 1527 1530 1532 1534 1537 1539 1541 1544 1546 1548 1550 1552 1553 1555 1556 1557 1558 1559 1559 1560 1560 1560 1560 1560 1561 1560 1560 1559 1558 1558 1557 1556 1555 1554 1553
1505 1508 1510 1514 1516 1519 1522 1525 1527 1530 1532 1534 1537 1539 1541 1544 1546 1548 1550 1552 1554 1555 1556 1557 1558 1559 1560 1560 1561 1561 1561 1560 1561 1561 1560 1560 1559 1558 1557 1556 1556 1555 1554
1504 1507 1510 1513 1516 1519 1521 1524 1527 1529 1532 1534 1536 1539 1542 1544 1546 1548 1550 1552 1554 1555 1556 1557 1558 1559 1560 1560 1560 1561 1561 1561 1561 1561 1560 1559 1558 1558 1557 1556 1555 1555 1554
1501 1505 1508 1511 1514 1517 1520 1523 1526 1529 1531 1534 1536 1539 1541 1544 1546 1548 1550 1552 1553 1555 1556 1557 1558 1559 1559 1560 1560 1560 1561 1561 1561 1560 1559 1558 1558 1557 1557 1556 1555 1554 1553
1498 1502 1506 1509 1513 1516 1518 1522 1525 1528 1530 1533 1535 1538 1540 1543 1545 1547 1549 1551 1553 1554 1555 1556 1557 1558 1559 1559 1559 1560 1560 1560 1560 1559 1559 1558 1557 1556 1556 1555 1554 1553 1553
1495 1499 1503 1507 1511 1514 1517 1520 1523 1526 1529 1531 1534 1536 1539 1542 1544 1546 1548 1550 1552 1553 1554 1555 1556 1557 1558 1558 1559 1559 1559 1559 1559 1558 1557 1556 1556 1555 1554 1554 1553 1552 1551
1491 1495 1501 1505 1509 1512 1515 1518 1521 1524 1527 1530 1533 1535 1538 1540 1543 1545 1547 1548 1550 1551 1553 1554 1555 1556 1557 1557 1558 1558 1558 1558 1558 1557 1556 1554 1554 1553 1552 1552 1551 1550 1550
1489 1493 1498 1502 1507 1510 1513 1516 1519 1522 1526 1529 1531 1534 1536 1539 1541 1543 1545 1547 1548 1550 1551 1552 1554 1554 1556 1556 1556 1556 1556 1556 1556 1555 1554 1553 1551 1551 1550 1549 1549 1548 1548
1486 1490 1494 1499 1504 1508 1511 1514 1517 1521 1524 1527 1529 1532 1535 1537 1539 1541 1543 1545 1546 1548 1549 1550 1552 1552 1553 1554 1554 1554 1554 1554 1553 1553 1551 1550 1549 1548 1547 1547 1546 1546 1545
1484 1487 1491 1496 1501 1505 1509 1512 1515 1518 1521 1524 1527 1530 1532 1535 1537 1539 1541 1543 1544 1545 1547 1548 1549 1550 1551 1552 1552 1552 1552 1551 1551 1550 1549 1547 1546 1545 1544 1544 1543 1543 1543
1482 1484 1489 1494 1498 1502 1506 1510 1513 1516 1519 1522 1525 1527 1530 1532 1534 1537 1539 1540 1542 1543 1545 1546 1547 1548 1549 1550 1550 1549 1549 1549 1548 1547 1546 1545 1543 1542 1542 1541 1541 1541 1540
1480 1483 1487 1491 1496 1500 1503 1507 1510 1513 1517 1519 1522 1524 1527 1529 1532 1534 1536 1538 1539 1540 1542 1543 1545 1545 1546 1547 1547 1546 1546 1545 1545 1544 1543 1542 1541 1540 1539 1539 1539 1538 1538
1479 1482 1485 1488 1492 1496 1500 1504 1507 1510 1513 1516 1518 1521 1524 1526 1529 1531 1532 1534 1536 1537 1539 1540 1542 1543 1543 1544 1544 1544 1543 1542 1541 1540 1540 1539 1539 1538 1537 1537 1537 1537 1536
1477 1480 1482 1485 1489 1493 1497 1501 1504 1507 1510 1513 1515 1518 1520 1523 1525 1527 1529 1531 1532 1534 1535 1537 1538 1539 1540 1541 1541 1541 1542 1542 1538 1538 1537 1537 1536 1535 1535 1535 1534 1534 1534
1475 1478 1481 1484 1488 1491 1494 1498 1501 1505 1507 1509 1511 1514 1516 1518 1520 1522 1525 1527 1528 1530 1532 1533 1534 1536 1537 1537 1538 1539 1539 1538 1537 1535 1534 1534 1533 1533 1532 1532 1532 1531 1531
1474 1476 1479 1482 1486 1488 1491 1494 1498 1501 1503 1505 1508 1509 1512 1514 1516 1518 1520 1522 1524 1525 1527 1529 1530 1532 1533 1533 1533 1533 1534 1534 1535 1533 1532 1530 1530 1530 1529 1529 1528 1528 1528
1472 1475 1477 1480 1483 1486 1488 1491 1495 1498 1500 1501 1503 1505 1507 1509 1511 1514 1516 1518 1520 1521 1523 1524 1526 1527 1528 1529 1529 1529 1529 1529 1529 1530 1529 1528 1527 1526 1525 1525 1525 1524 1524
1471 1473 1476 1478 1481 1484 1486 1489 1491 1494 1496 1497 1498 1500 1502 1504 1507 1509 1511 1513 1515 1517 1519 1520 1521 1523 1524 1524 1525 1525 1525 1525 1525 1525 1525 1524 1524 1522 1521 1521 1520 1520 1520